This is the latest recevied weather packets stored in our database for station/object W4ZHA. If no packets are shown the sender has not sent any weather packets the latest 10 day(s).
| Time | Temp. | Humidity | Pressure | Rain* | Wind** | Luminosity | Snow |
|---|---|---|---|---|---|---|---|
| 1787508596 | 28.89° C | 57% | 1016.8 hPa | 0 mm | - | 472 W/m² | - |
| 1787508291 | 28.89° C | 54% | 1017.2 hPa | 0 mm | - | 463 W/m² | - |
| 1787507987 | 29.44° C | 56% | 1017.2 hPa | 0 mm | - | 439 W/m² | - |
| 1787507684 | 29.44° C | 55% | 1016.5 hPa | 0 mm | - | 463 W/m² | - |
| 1787507379 | 29.44° C | 56% | 1016.8 hPa | 0 mm | - | 458 W/m² | - |
| 1787507069 | 28.89° C | 57% | 1016.8 hPa | 0 mm | - | 462 W/m² | - |
| 1787506765 | 28.89° C | 57% | 1017.2 hPa | 0 mm | - | 456 W/m² | - |
| 1787506462 | 28.33° C | 57% | 1017.2 hPa | 0 mm | - | 447 W/m² | - |
| 1787506162 | 29.44° C | 56% | 1017.6 hPa | 0 mm | - | 447 W/m² | - |
| 1787505857 | 29.44° C | 57% | 1017.2 hPa | 0 mm | - | 442 W/m² | - |
| 1787505552 | 28.89° C | 57% | 1017.2 hPa | 0 mm | - | 444 W/m² | - |
| 1787505247 | 28.33° C | 58% | 1017.2 hPa | 0 mm | - | 443 W/m² | - |
| 1787504947 | 28.89° C | 59% | 1017.6 hPa | 0 mm | - | 441 W/m² | - |
| 1787504643 | 27.22° C | 57% | 1017.6 hPa | 0 mm | - | 440 W/m² | - |
| 1787504338 | 28.33° C | 58% | 1017.6 hPa | 0 mm | - | 432 W/m² | - |
| 1787504033 | 28.33° C | 59% | 1017.6 hPa | 0 mm | - | 428 W/m² | - |
| 1787503728 | 27.78° C | 59% | 1017.6 hPa | 0 mm | - | 426 W/m² | - |
| 1787503424 | 27.22° C | 58% | 1017.6 hPa | 0 mm | - | 419 W/m² | - |
| 1787503120 | 28.33° C | 58% | 1017.9 hPa | 0 mm | - | 415 W/m² | - |
| 1787502816 | 28.33° C | 58% | 1017.9 hPa | 0 mm | - | 412 W/m² | - |
| 1787502516 | 27.22° C | 58% | 1017.9 hPa | 0 mm | - | 405 W/m² | - |
| 1787502215 | 27.78° C | 59% | 1017.9 hPa | 0 mm | - | 399 W/m² | - |
| 1787501911 | 27.78° C | 62% | 1017.9 hPa | 0 mm | - | 390 W/m² | - |
| 1787501607 | 26.67° C | 61% | 1017.9 hPa | 0 mm | - | 377 W/m² | - |
| 1787501303 | 26.67° C | 60% | 1017.9 hPa | 0 mm | - | 96 W/m² | - |
* Rain latest hour (hover to see other rain measurements)
** Current wind speed in m/s (hover to see current wind gust speed)